Regional Weather Roundup
Issued by NWS Sioux Falls, SD

Home | Current Version | Previous Version | Text Only | Print | Product List | Glossary On
Versions: 1 2 3 4 5 6 7 8 9 10 11 12 13 14 15 16 17 18 19 20 21 22 23 24 25 26 27 28 29 30 31 32 33 34 35 36 37 38 39 40 41 42 43 44 45 46 47 48 49 50
000
ASUS43 KFSD 271610
RWRFSD

WEATHER ROUNDUP FOR SE SOUTH DAKOTA/SW MINNESOTA/NW IOWA
NATIONAL WEATHER SERVICE SIOUX FALLS SD
1100 AM CDT MON APR 27 2015

NOTE: "FAIR" INDICATES FEW OR NO CLOUDS BELOW 12,000 FEET WITH NO
SIGNIFICANT WEATHER AND OR OBSTRUCTIONS TO VISIBILITY.


SDZ038>040-050-052>070-271700-
SOUTHEAST SOUTH DAKOTA

CITY           SKY/WX    TMP DP  RH WIND       PRES   REMARKS
CHAMBERLAIN    SUNNY     59  33  37 N3        30.24S
HURON          SUNNY     60  31  33 CALM      30.24S
MADISON        FAIR      57  25  28 S7        30.24S
MITCHELL       SUNNY     59  38  45 VRB3      30.24S
SIOUX FALLS    MOSUNNY   60  28  29 CALM      30.23F
WINNER         FAIR      64  32  30 N7        30.23F
YANKTON        SUNNY     59  36  41 SE7       30.22S
$$

MNZ071-072-080-081-089-090-097-098-271700-
SOUTHWEST MINNESOTA

CITY           SKY/WX    TMP DP  RH WIND       PRES   REMARKS
FAIRMONT       SUNNY     59  27  29 N10       30.24S
JACKSON        SUNNY     59  23  25 NE9       30.25S
LUVERNE        SUNNY     61  23  23 E5        30.24F
MARSHALL       SUNNY     61  25  25 SE6       30.25F
MONTEVIDEO     SUNNY     63  28  27 W5        30.26F
REDWOOD FALLS  SUNNY     59  27  29 S3        30.26S
TRACY          SUNNY     60  26  26 CALM      30.25F
WORTHINGTON    SUNNY     59  25  27 NE3       30.25S
$$

IAZ001>003-012>014-020>022-031-032-NEZ013-014-SDZ071-271700-
NORTHWEST IOWA

CITY           SKY/WX    TMP DP  RH WIND       PRES   REMARKS
CHEROKEE       SUNNY     60  30  31 N7        30.22S
DENISON        SUNNY     59  34  38 NE8       30.19F
ESTHERVILLE    SUNNY     58  30  34 NE9G18    30.23S
LE MARS        SUNNY     61  27  27 NE8       30.24S
ORANGE CITY    SUNNY     59  27  29 NE3       30.23S
SHELDON        SUNNY     61  23  23 VRB6G14   30.22S
SIOUX CITY     SUNNY     62  27  26 VRB5      30.22F
SPENCER        SUNNY     62  26  25 NE13      30.23S
STORM LAKE     SUNNY     59  27  29 NE13G18   30.22S
$$

ABBREVIATIONS USED IN REMARKS
   TC - TEMPERATURE IN CELSIUS
  WCI - WIND CHILL INDEX
   HX - HEAT INDEX
  VSB - VISIBILITY




USA.gov is the U.S. government's official web portal to all federal, state and local government web resources and services.